Fortuna, CA

8:14 PM PDT on April 26, 2018 (GMT -0700)
Rohnerville

Weather History for KFOT - March, 2014

Change the Weather History Date:

Tuesday, March 11, 2014

  Actual Average (KEKA) Record (KEKA)
Temperature  
Mean Temperature 52 °F -  
Max Temperature 62 °F 55 °F 72 °F (2007)
Min Temperature 41 °F 43 °F 30 °F (2006)
Degree Days  
Heating Degree Days 14    
Growing Degree Days 2 (Base 50)    
Moisture  
Dew Point 40 °F    
Average Humidity 75    
Maximum Humidity 100    
Minimum Humidity 39    
Precipitation  
Precipitation 0.00 in - - ()
Sea Level Pressure  
Sea Level Pressure 30.25 in    
Wind  
Wind Speed 7 mph (WNW)    
Max Wind Speed 15 mph    
Max Gust Speed 18 mph    
Visibility 10 miles    
Events      
Averages and records for this station are not official NWS values.
T = Trace of Precipitation, MM = Missing Value Source: NWS Daily Summary

Daily Weather History Graph

Daily Weather History Graph

Search for Another Location

Airport or City:

Astronomy

Mar. 11, 2014 Rise Set
Actual Time 7:34 AM PDT 7:19 PM PDT
Civil Twilight 7:07 AM PDT 7:46 PM PDT
Nautical Twilight 6:35 AM PDT 8:18 PM PDT
Astronomical Twilight 6:03 AM PDT 8:50 PM PDT
Moon 2:59 PM PDT (3/11) 4:32 AM PDT (3/11)
Length of Visible Light 12h 39m
Length of Day
11h 44m
Waxing Gibbous, 79% of the Moon is Illuminated
Mar 11
Waxing Gibbous
Mar 16
Full
Mar 23
Last Quarter
Mar 30
New
Apr 7
First Quarter

Hourly Weather History & Observations

Time (PDT) Temp. Windchill Dew Point Humidity Pressure Visibility Wind Dir Wind Speed Gust Speed Precip Events Conditions
12:10 AM 46.4 °F 42.4 °F 44.6 °F 93% 30.41 in 10.0 mi NNW 8.1 mph - N/A   Partly Cloudy
12:30 AM 46.4 °F 45.2 °F 42.8 °F 87% 30.41 in 10.0 mi NW 3.5 mph - N/A   Scattered Clouds
12:50 AM 46.4 °F - 44.6 °F 93% 30.41 in 10.0 mi Calm Calm - N/A   Mostly Cloudy
1:10 AM 46.4 °F 45.2 °F 44.6 °F 93% 30.41 in 10.0 mi WSW 3.5 mph - N/A   Overcast
1:30 AM 46.4 °F 44.3 °F 44.6 °F 93% 30.40 in 10.0 mi NW 4.6 mph - N/A   Overcast
1:50 AM 46.4 °F 45.2 °F 42.8 °F 87% 30.40 in 10.0 mi NW 3.5 mph - N/A   Mostly Cloudy
2:10 AM 46.4 °F 45.2 °F 44.6 °F 93% 30.40 in 10.0 mi NW 3.5 mph - N/A   Mostly Cloudy
2:30 AM 46.4 °F 45.2 °F 44.6 °F 93% 30.39 in 10.0 mi NW 3.5 mph - N/A   Scattered Clouds
2:50 AM 44.6 °F 40.7 °F 42.8 °F 93% 30.39 in 10.0 mi WNW 6.9 mph - N/A   Clear
3:10 AM 44.6 °F 40.7 °F 42.8 °F 93% 30.38 in 10.0 mi NW 6.9 mph - N/A   Clear
3:30 AM 41.0 °F 38.0 °F 41.0 °F 100% 30.37 in 10.0 mi NNW 4.6 mph - N/A   Clear
3:50 AM 41.0 °F 39.0 °F 41.0 °F 100% 30.36 in 6.0 mi NNW 3.5 mph - N/A   Partly Cloudy
4:10 AM 41.0 °F 35.8 °F 41.0 °F 100% 30.35 in 10.0 mi WNW 8.1 mph - N/A   Partly Cloudy
4:30 AM 41.0 °F 36.4 °F 41.0 °F 100% 30.34 in 10.0 mi WNW 6.9 mph - N/A   Clear
4:50 AM 41.0 °F 36.4 °F 41.0 °F 100% 30.33 in 10.0 mi NW 6.9 mph - N/A   Clear
5:10 AM 41.0 °F - 41.0 °F 100% 30.33 in 10.0 mi Calm Calm - N/A   Clear
5:30 AM 41.0 °F 36.4 °F 41.0 °F 100% 30.33 in 10.0 mi NW 6.9 mph - N/A   Clear
5:50 AM 41.0 °F - 39.2 °F 93% 30.32 in 10.0 mi Calm Calm - N/A   Clear
6:10 AM 41.0 °F - 39.2 °F 93% 30.32 in 10.0 mi Calm Calm - N/A   Clear
6:30 AM 41.0 °F - 41.0 °F 100% 30.32 in 10.0 mi Calm Calm - N/A   Clear
6:50 AM 42.8 °F 40.1 °F 39.2 °F 87% 30.31 in 10.0 mi WSW 4.6 mph - N/A   Clear
7:10 AM 41.0 °F 37.1 °F 39.2 °F 93% 30.30 in 10.0 mi WSW 5.8 mph - N/A   Clear
7:30 AM 41.0 °F 38.0 °F 39.2 °F 93% 30.30 in 10.0 mi West 4.6 mph - N/A   Clear
7:50 AM 41.0 °F 38.0 °F 39.2 °F 93% 30.30 in 10.0 mi SSE 4.6 mph - N/A   Clear
8:10 AM 41.0 °F 36.4 °F 39.2 °F 93% 30.30 in 10.0 mi SE 6.9 mph - N/A   Clear
8:30 AM 41.0 °F 36.4 °F 41.0 °F 100% 30.30 in 10.0 mi SE 6.9 mph - N/A   Clear
8:50 AM 42.8 °F 40.1 °F 41.0 °F 93% 30.29 in 10.0 mi SE 4.6 mph - N/A   Clear
9:10 AM 44.6 °F 43.1 °F 41.0 °F 87% 30.29 in 10.0 mi SE 3.5 mph - N/A   Clear
9:30 AM 44.6 °F - 41.0 °F 87% 30.28 in 2.0 mi Calm Calm - N/A   Clear
9:50 AM 46.4 °F 45.2 °F 41.0 °F 81% 30.28 in 10.0 mi NW 3.5 mph - N/A   Clear
10:10 AM 46.4 °F 44.3 °F 39.2 °F 76% 30.28 in 10.0 mi NNW 4.6 mph - N/A   Clear
10:30 AM 48.2 °F - 39.2 °F 71% 30.27 in 10.0 mi NNW 6.9 mph - N/A   Clear
10:50 AM 50.0 °F - 41.0 °F 71% 30.27 in 10.0 mi NW 6.9 mph - N/A   Clear
11:10 AM 51.8 °F - 41.0 °F 67% 30.26 in 10.0 mi NW 9.2 mph - N/A   Clear
11:30 AM 53.6 °F - 41.0 °F 62% 30.26 in 10.0 mi WNW 10.4 mph - N/A   Clear
11:50 AM 53.6 °F - 39.2 °F 58% 30.25 in 10.0 mi WNW 10.4 mph - N/A   Clear
12:10 PM 55.4 °F - 39.2 °F 54% 30.24 in 10.0 mi West 10.4 mph - N/A   Clear
12:30 PM 55.4 °F - 39.2 °F 54% 30.23 in 10.0 mi West 8.1 mph - N/A   Clear
12:50 PM 57.2 °F - 41.0 °F 55% 30.22 in 10.0 mi WNW 11.5 mph - N/A   Clear
1:10 PM 57.2 °F - 41.0 °F 55% 30.21 in 10.0 mi WNW 12.7 mph - N/A   Clear
1:30 PM 55.4 °F - 41.0 °F 58% 30.20 in 10.0 mi West 12.7 mph 18.4 mph N/A   Clear
1:50 PM 57.2 °F - 41.0 °F 55% 30.19 in 10.0 mi West 12.7 mph - N/A   Clear
2:10 PM 57.2 °F - 42.8 °F 59% 30.19 in 10.0 mi WNW 12.7 mph - N/A   Clear
2:30 PM 59.0 °F - 42.8 °F 55% 30.18 in 10.0 mi West 12.7 mph - N/A   Clear
2:50 PM 59.0 °F - 42.8 °F 55% 30.17 in 10.0 mi WNW 11.5 mph - N/A   Clear
3:10 PM 59.0 °F - 44.6 °F 59% 30.16 in 10.0 mi West 12.7 mph - N/A   Clear
3:30 PM 62.6 °F - 41.0 °F 45% 30.15 in 10.0 mi NW 12.7 mph - N/A   Clear
3:50 PM 62.6 °F - 39.2 °F 42% 30.15 in 10.0 mi NW 11.5 mph - N/A   Clear
4:10 PM 62.6 °F - 39.2 °F 42% 30.15 in 10.0 mi NW 10.4 mph 17.3 mph N/A   Clear
4:30 PM 62.6 °F - 37.4 °F 39% 30.15 in 10.0 mi NW 12.7 mph - N/A   Clear
4:50 PM 62.6 °F - 37.4 °F 39% 30.15 in 10.0 mi WNW 10.4 mph - N/A   Clear
5:10 PM 60.8 °F - 35.6 °F 39% 30.15 in 10.0 mi NW 15.0 mph - N/A   Clear
5:30 PM 59.0 °F - 35.6 °F 42% 30.15 in 10.0 mi NW 12.7 mph - N/A   Clear
5:50 PM 59.0 °F - 35.6 °F 42% 30.15 in 10.0 mi NW 10.4 mph - N/A   Clear
6:10 PM 57.2 °F - 35.6 °F 44% 30.15 in 10.0 mi WNW 10.4 mph - N/A   Clear
6:30 PM 55.4 °F - 39.2 °F 54% 30.16 in 10.0 mi West 9.2 mph - N/A   Clear
6:50 PM 55.4 °F - 39.2 °F 54% 30.16 in 10.0 mi West 6.9 mph - N/A   Clear
7:10 PM 53.6 °F - 37.4 °F 54% 30.17 in 10.0 mi WSW 5.8 mph - N/A   Clear
7:30 PM 53.6 °F - 37.4 °F 54% 30.18 in 10.0 mi SW 3.5 mph - N/A   Clear
7:50 PM 53.6 °F - 35.6 °F 51% 30.18 in 10.0 mi SSW 3.5 mph - N/A   Clear
8:10 PM 50.0 °F - 37.4 °F 62% 30.18 in 10.0 mi SE 3.5 mph - N/A   Clear
8:30 PM 48.2 °F - 39.2 °F 71% 30.19 in 10.0 mi SE 6.9 mph - N/A   Clear
8:50 PM 48.2 °F - 41.0 °F 76% 30.19 in 10.0 mi ESE 6.9 mph - N/A   Clear
9:10 PM 48.2 °F - 41.0 °F 76% 30.19 in 10.0 mi SSE 8.1 mph - N/A   Clear
9:30 PM 46.4 °F 41.5 °F 41.0 °F 81% 30.19 in 10.0 mi ESE 10.4 mph - N/A   Clear
9:50 PM 46.4 °F 41.5 °F 41.0 °F 81% 30.18 in 10.0 mi South 10.4 mph - N/A   Clear
10:10 PM 46.4 °F 40.7 °F 41.0 °F 81% 30.19 in 10.0 mi ESE 12.7 mph - N/A   Clear
10:30 PM 48.2 °F - 39.2 °F 71% 30.19 in 10.0 mi ESE 13.8 mph - N/A   Clear
10:50 PM 46.4 °F 41.1 °F 39.2 °F 76% 30.19 in 10.0 mi SE 11.5 mph - N/A   Clear
11:10 PM 42.8 °F 36.6 °F 41.0 °F 93% 30.19 in 10.0 mi SE 11.5 mph - N/A   Clear
11:30 PM 42.8 °F 37.0 °F 41.0 °F 93% 30.19 in 10.0 mi SE 10.4 mph - N/A   Clear
11:50 PM 42.8 °F 36.2 °F 39.2 °F 87% 30.19 in 10.0 mi SE 12.7 mph - N/A   Clear